Powrót do katalogu

USA 498

AktywnyMilitariaLEO
NORAD 63350·PAYLOAD·🇺🇸 United States

Wystrzelony Mar 24, 2025 z Cape Canaveral Space Force Station

Loading…

Następne Przeloty (najbliższe 24 godziny)

TLE

NieaktualneSource: Mike McCants

Epoka: Aug 11, 2026, 21:20 UTC

1 63350U 25060A   26223.88940501 0.00000000  00000-0  00000-0 0    03
2 63350  63.4342 149.9187 0089000 177.0783 182.9217 13.41001349    06

Śledź USA 498 w czasie rzeczywistym z AllMySat

Download on the App Store